User: anonymous   Login
Location: Unspecified
(0.0000°N, 0.0000°E)
Time: 07:23:09
(UTC+00:00)
Language:

YUBILEINY - Orbit

View from above orbital plane
View from above orbital plane
View from above satellite
View from above satellite

Ground track
Ground track

The orbit data is extracted from the following two-line orbital elements,

1 32953U 08025A   20048.02758423  .00000037  00000-0  19437-3 0  9999
2 32953  82.5075 353.4266 0018932 322.4377  37.5376 12.43094340532541
Epoch (UTC): 17 February 2020 00:39:43
Eccentricity: 0.0018932
inclination: 82.5075°
perigee height: 1478 km
apogee height: 1508 km
right ascension of ascending node: 353.4266°
argument of perigee: 322.4377°
revolutions per day: 12.43094340
mean anomaly at epoch: 37.5376°
orbit number at epoch: 53254

The dashed part of the orbit path shows where the satellite is in the earth's shadow,  

DLR